This demonstration page uses our WeatherBlox Daily Observations layout. Learn more.

39.92423, -83.80882

Hourly Observations for December 29, 2019

Temp ( °F °C ) Dew Point ( °F °C ) Humidity (%) Winds ( mph kmh ) Pressure ( in mb ) Visibility ( mi km ) Precip ( " mm )
12:56 am 00:56 Cloudy with Mist and Fog 48 8.9 48 8.9 100 100 ESE 12 19 30 1016 5 8.0467 0 0
1:56 am 01:56 Mostly Cloudy with Light Rain 48 8.9 48 8.9 100 100 E 13 20 29.97 1015 6 9.65604 0.001 0.001
2:56 am 02:56 Cloudy 49 9.4 48 8.9 97 97 ESE 14 22 29.97 1015 7 11.26538 0.001 0.001
3:56 am 03:56 Cloudy 50 10 48 8.9 93 93 SE 16 26 29.95 1014 9 14.48406 0.001 0.001
4:38 am 04:38 Cloudy with Light Rain 48 9 48 9 100 100 SE 13 20 29.95 1014 6 9.65604 0.03 0.762
4:56 am 04:56 Cloudy with Light Rain 49 9.4 49 9.4 100 100 SE 15 24 29.92 1013 7 11.26538 0.03 0.762
5:15 am 05:15 Cloudy with Rain 48 9 48 9 100 100 SE 15 24 29.93 1013 5 8.0467 0.01 0.254
5:27 am 05:27 Cloudy with Light Rain 48 9 48 9 100 100 SE 14 22 29.92 1013 6 9.65604 0.02 0.508
5:41 am 05:41 Cloudy with Mist and Fog 48 9 48 9 100 100 SE 15 24 29.92 1013 6 9.65604 0.02 0.508
5:56 am 05:56 Cloudy with Mist and Fog 50 10 50 10 100 100 SSE 12 19 29.91 1013 6 9.65604 0.02 0.508
6:20 am 06:20 Cloudy 50 10 50 10 100 100 SE 13 20 29.9 1013 7 11.26538 0 0
6:43 am 06:43 Cloudy with Rain 52 11 52 11 100 100 SSE 13 20 29.9 1012 6 9.65604 0.01 0.254
6:56 am 06:56 Cloudy with Rain 51 10.6 51 10.6 100 100 SSE 12 19 29.91 1013 6 9.65604 0.04 1.016
7:23 am 07:23 Cloudy with Rain 52 11 52 11 100 100 SSE 15 24 29.89 1012 6 9.65604 0.11 2.794
7:30 am 07:30 Cloudy with Rain 52 11 52 11 100 100 SSE 15 24 29.89 1012 6 9.65604 0.12 3.048
7:45 am 07:45 Cloudy with Light Rain 52 11 52 11 100 100 SE 16 26 29.88 1012 6 9.65604 0.16 4.064
7:56 am 07:56 Cloudy with Rain 52 11.1 52 11.1 100 100 SE 16 26 29.88 1012 7 11.26538 0.18 4.572
8:22 am 08:22 Cloudy with Light Rain 52 11 52 11 100 100 SE 15 24 29.87 1011 6 9.65604 0.02 0.508
8:32 am 08:32 Cloudy with Light Rain 52 11 52 11 100 100 SE 14 22 29.86 1011 7 11.26538 0.03 0.762
8:44 am 08:44 Cloudy with Light Rain 52 11 52 11 100 100 SE 15 24 29.86 1011 9 14.48406 0.04 1.016
8:56 am 08:56 Cloudy with Rain 53 11.7 53 11.7 100 100 SSE 10 17 29.87 1011 6 9.65604 0.05 1.27
9:07 am 09:07 Cloudy with Light Rain 54 12 54 12 100 100 SSE 15 24 29.85 1011 6 9.65604 0.01 0.254
9:17 am 09:17 Cloudy with Light Rain 54 12 54 12 100 100 SSE 14 22 29.85 1011 10 16.0934 0.02 0.508
9:40 am 09:40 Cloudy with Light Rain 54 12 54 12 100 100 SSE 14 22 29.85 1011 10 16.0934 0.02 0.508
9:56 am 09:56 Cloudy with Light Rain 55 12.8 55 12.8 100 100 S 13 20 29.85 1011 10 16.0934 0.03 0.762
10:56 am 10:56 Cloudy with Rain 56 13.3 56 13.3 100 100 S 10 17 29.84 1011 9 14.48406 0.03 0.762
12:56 pm 12:56 Cloudy with Light Rain 59 15 59 15 100 100 SSW 13 20 29.78 1008 10 16.0934 0.01 0.254
1:56 pm 13:56 Cloudy with Light Rain 59 15 59 15 100 100 S 8 13 29.75 1007 10 16.0934 0.01 0.254
2:33 pm 14:33 Cloudy 59 15 59 15 100 100 S 9 15 29.75 1007 10 16.0934 0.001 0.001
2:56 pm 14:56 Cloudy 59 15 59 15 100 100 SSW 9 15 29.79 1009 10 16.0934 0.001 0.001
3:31 pm 15:31 Cloudy 57 14 57 14 100 100 SSW 8 13 29.78 1008 10 16.0934 0.001 0.001
3:56 pm 15:56 Cloudy 58 14.4 58 14.4 100 100 S 7 11 29.76 1008 10 16.0934 0.001 0.001
4:56 pm 16:56 Cloudy with Light Rain 57 13.9 57 13.9 100 100 SSW 7 11 29.77 1008 10 16.0934 0.001 0.001
5:56 pm 17:56 Cloudy with Light Rain 56 13.3 56 13.3 100 100 SSW 6 9 29.76 1008 10 16.0934 0.01 0.254
6:56 pm 18:56 Cloudy with Light Rain 56 13.3 56 13.3 100 100 Calm 29.73 1007 10 16.0934 0.01 0.254
7:27 pm 19:27 Cloudy with Rain 54 12 54 12 100 100 ESE 5 7 29.71 1006 1.75 2.816345 0.01 0.254
7:32 pm 19:32 Cloudy with Rain 54 12 54 12 100 100 ESE 6 9 29.7 1006 3 4.82802 0.02 0.508
7:56 pm 19:56 Cloudy with Light Rain 55 12.8 55 12.8 100 100 S 3 6 29.72 1006 8 12.87472 0.03 0.762
8:56 pm 20:56 Cloudy with Light Rain 54 12.2 54 12.2 100 100 E 5 7 29.67 1005 5 8.0467 0.05 1.27
9:07 pm 21:07 Cloudy with Light Rain 54 12 54 12 100 100 SSE 6 9 29.67 1005 2.5 4.02335 0.001 0.001
9:15 pm 21:15 Cloudy with Light Rain 54 12 54 12 100 100 SSE 6 9 29.66 1005 3 4.82802 0.001 0.001
9:30 pm 21:30 Cloudy with Light Rain 54 12 54 12 100 100 SE 6 9 29.65 1004 5 8.0467 0.01 0.254
9:41 pm 21:41 Cloudy with Light Rain 54 12 54 12 100 100 SE 6 9 29.64 1004 2.5 4.02335 0.01 0.254
9:46 pm 21:46 Cloudy with Light Rain 54 12 54 12 100 100 SSE 6 9 29.64 1004 3 4.82802 0.02 0.508
9:53 pm 21:53 Cloudy with Light Rain 54 12 54 12 100 100 SE 6 9 29.63 1003 5 8.0467 0.02 0.508
9:56 pm 21:56 Cloudy with Light Rain 53 11.7 53 11.7 100 100 SE 6 9 29.63 1003 5 8.0467 0.02 0.508
10:09 pm 22:09 Cloudy with Light Rain 54 12 54 12 100 100 SE 5 7 29.62 1003 4 6.43736 0.001 0.001
10:15 pm 22:15 Cloudy with Light Rain 54 12 54 12 100 100 SSE 5 7 29.62 1003 1.75 2.816345 0.001 0.001
10:21 pm 22:21 Cloudy with Light Rain 54 12 54 12 100 100 S 7 11 29.62 1003 2 3.21868 0.001 0.001
10:30 pm 22:30 Cloudy with Light Rain 54 12 54 12 100 100 SSE 7 11 29.61 1003 5 8.0467 0.001 0.001
10:56 pm 22:56 Cloudy with Light Rain 53 11.7 53 11.7 100 100 ESE 18 30 29.51 999 10 16.0934 0.01 0.254
11:56 pm 23:56 Cloudy 53 11.7 53 11.7 100 100 ESE 21 33 29.46 998 10 16.0934 0.01 0.254

Powered by AerisWeather